Regional Weather Roundup
Issued by NWS Grand Forks, ND

Home | Current Version | Previous Version | Text Only | Print | Product List | Glossary On
Versions: 1 2 3 4 5 6 7 8 9 10 11 12 13 14 15 16 17 18 19 20 21 22 23 24 25 26 27 28 29 30 31 32 33 34 35 36 37 38 39 40 41 42 43 44 45 46 47 48 49 50
000
ASUS43 KFGF 311831
RWRFGF
PRAIRIE TO PINES  WEATHER ROUNDUP
NATIONAL WEATHER SERVICE EASTERN NORTH DAKOTA/GRAND FORKS ND
100 PM CDT TUE MAY 31 2016

 **SATELLITE DATA USED TO AUGMENT SKY COVER AT AUTOMATED STATIONS**
 *****  WEATHER ACROSS EASTERN NORTH DAKOTA  *****

CITY           SKY/WX    TMP DP  RH WIND       PRES   REMARKS
GRAND FORKS    PTSUNNY   66  56  70 SW18G24   29.69S
6HR MIN TEMP:  60; 6HR MAX TEMP:  67;

GRAND FRKS AFB CLOUDY    63  52  67 SW15G24   29.70R
GRAND FRKS NWS   N/A     63 N/A N/A SW13        N/A
DEVILS LAKE    CLOUDY    57  52  82 S9        29.68S
6HR MIN TEMP:  55; 6HR MAX TEMP:  59; 6HR PCP: TRACE;

FARGO          MOSUNNY   68  47  46 SW21G26   29.75S
WAHPETON ARPT  PTCLDY    68  46  45 SW20G25   29.79F
$$

 ***** WEATHER ACROSS CENTRAL AND WESTERN NORTH DAKOTA  *****

CITY           SKY/WX    TMP DP  RH WIND       PRES   REMARKS
BISMARCK       LGT RAIN  57  50  77 W18G30    29.69F
6HR MIN TEMP:  49; 6HR MAX TEMP:  64; 6HR PCP:  0.01;

MINOT          PTSUNNY   65  48  54 SW12G17   29.60F
6HR MIN TEMP:  53; 6HR MAX TEMP:  66; 6HR PCP:  0.15;

JAMESTOWN      CLOUDY    61  47  59 SW18G26   29.72F
6HR MIN TEMP:  55; 6HR MAX TEMP:  62;

MINOT AFB      SUNNY     64  51  63 S7        29.58S
GARRISON         N/A     59  49  69 W13       29.63S
WILLISTON      LGT RAIN  53  49  86 N25G45    29.77R
6HR MIN TEMP:  52; 6HR MAX TEMP:  54; 6HR PCP:  0.34;

DICKINSON      LGT RAIN  50  47  89 NW29G38   29.68R
6HR MIN TEMP:  46; 6HR MAX TEMP:  52; 6HR PCP:  0.17;

HETTINGER      LGT RAIN  52  49  89 W29G40    29.76F FOG
6HR MIN TEMP:  46; 6HR MAX TEMP:  53; 6HR PCP:  0.03;

$$

 *****  OTHER AIRPORT OBSERVATIONS IN OUR AREA  *****

CITY           SKY/WX    TMP DP  RH WIND       PRES   REMARKS
WALHALLA       FAIR      66  63  88 S10       29.65S
GRAFTON AIRPOR MOCLDY    68  59  73 S15       29.69S
VALLEY CITY AR MOCLDY    63  46  55 SW22G30   29.76R
CANDO          CLOUDY    59  57  94 SW9       29.67F
CAVALIER APRT  CLOUDY    64  57  77 S12G17    29.66S
GWINNER        MOCLDY    64  48  55 SW21      29.79S
ROLLA          FAIR      61  54  77 SW14      29.64S
 ***** THE ABOVE OBSERVATIONS ARE NON NWS ARE NOT QUALITY
       CONTROLLED AND MAY MIS-REPORT RAIN FOR SNOW...
$$

  *****  WEATHER ACROSS NORTHERN MINNESOTA  *****

CITY           SKY/WX    TMP DP  RH WIND       PRES   REMARKS
FLAG ISLAND    RAIN      52  50  93 SE13G18   29.81R
WARROAD        CLOUDY    52  48  87 SE16      29.78F
ROSEAU         CLOUDY    54  48  82 SE16G25   29.76S
HALLOCK        CLOUDY    66  61  82 S15       29.68S
THF RVR FALLS  CLOUDY    64  55  72 S14       29.73S
6HR MIN TEMP:  57; 6HR MAX TEMP:  63; 6HR PCP:  0.12;

BAUDETTE       CLOUDY    50  47  89 SE18G26   29.81S
6HR MIN TEMP:  49; 6HR MAX TEMP:  53; 6HR PCP:  0.15;

WASKISH        CLOUDY    54  52  94 E8        29.81R
CROOKSTON      PTSUNNY   66  55  68 SW17G23   29.72S
STEPHEN NDAWN    N/A     66  59  77 SW13        N/A
GREENBUSH NDAW   N/A     61  59  94 SE12        N/A
$$
  *****  WEATHER ACROSS CENTRAL AND WEST MINNESOTA  *****

CITY           SKY/WX    TMP DP  RH WIND       PRES   REMARKS
FOSSTON        PTSUNNY   64  59  82 SW17      29.75F
BEMIDJI        CLOUDY    56  54  94 SE13      29.79S
PARK RAPIDS    CLOUDY    63  59  87 SE8       29.79S
6HR MIN TEMP:  57; 6HR MAX TEMP:  63; 6HR PCP:  0.07;

ELBOW LAKE     FAIR      67  53  59 SW15      29.83S
6HR MIN TEMP:  60; 6HR MAX TEMP:  66;

WADENA         PTSUNNY   64  55  72 SW14      29.80S
DETROIT LAKES  MOSUNNY   64  52  63 SW16      29.79S
MOORHEAD       MOSUNNY   64  50  59 SW17      29.77S
FERGUS FALLS   MOSUNNY   66  48  52 SW15G23   29.77F
MORRIS MN      MOSUNNY   70  52  52 SW12G21   29.83S
STAPLES        PTSUNNY   66  55  68 SW9       29.82R
$$
  *****  WEATHER ELSEWHERE ACROSS MINNESOTA  *****

CITY           SKY/WX    TMP DP  RH WIND       PRES   REMARKS
DULUTH         RAIN      45  44  97 E13       29.92S FOG
6HR MIN TEMP:  44; 6HR MAX TEMP:  47; 6HR PCP:  0.04;

INTRNTL FALLS  LGT RAIN  50  47  89 E18       29.86S FOG
6HR MIN TEMP:  48; 6HR MAX TEMP:  52; 6HR PCP:  0.60;

ELY            LGT RAIN  50  45  81 SE16G28   29.92S
CLOQUET        LGT RAIN  45  43  93 E13G18    29.91S
WHEATON        MOSUNNY   70  54  56 SW16G23   29.83S
BRAINERD       CLOUDY    63  60  90 SE5       29.82F
6HR MIN TEMP:  52; 6HR MAX TEMP:  62; 6HR PCP:  0.24;

HIBBING        RAIN      48  47  96 SE14      29.88F FOG
6HR MIN TEMP:  46; 6HR MAX TEMP:  49; 6HR PCP:  0.17;

ALEXANDRIA     PTSUNNY   66  53  63 W14       29.84S
6HR MIN TEMP:  61; 6HR MAX TEMP:  68; 6HR PCP: TRACE;

SAINT CLOUD    CLOUDY    67  59  75 SW9       29.85S
6HR MIN TEMP:  62; 6HR MAX TEMP:  67; 6HR PCP:  0.03;

MINNEAPOLIS    CLOUDY    70  60  70 SW10      29.87S
6HR MIN TEMP:  64; 6HR MAX TEMP:  71; 6HR PCP:  0.02;

$$

  *****  WEATHER ACROSS SOUTH DAKOTA  *****

CITY           SKY/WX    TMP DP  RH WIND       PRES   REMARKS
SIOUX FALLS    MOSUNNY   68  49  50 NW15G21   29.93S
6HR MIN TEMP:  59; 6HR MAX TEMP:  68;

BROOKINGS      SUNNY     66  45  46 W20G28    29.90S
WATERTOWN      MOSUNNY   65  46  50 W18G25    29.87S
6HR MIN TEMP:  58; 6HR MAX TEMP:  66;

HURON          SUNNY     69  45  41 W23G30    29.88F
6HR MIN TEMP:  54; 6HR MAX TEMP:  70;

SISSETON         N/A     68  46  45 W23G35    29.81R
ABERDEEN       PTSUNNY   64  47  53 W20G25    29.82S
6HR MIN TEMP:  54; 6HR MAX TEMP:  66;

MITCHELL       MOSUNNY   69  47  45 W13       29.92F
PIERRE         CLOUDY    65  43  44 W23G30    29.88R
6HR MIN TEMP:  51; 6HR MAX TEMP:  69;

MOBRIDGE       MOSUNNY   63  44  50 W23G35    29.77F
RAPID CITY     CLOUDY    64  37  36 W20G29    29.96S
6HR MIN TEMP:  44; 6HR MAX TEMP:  65;

$$

  *****  SOME WEATHER IN NEARBY STATES *****

CITY           SKY/WX    TMP DP  RH WIND       PRES   REMARKS
GLASGOW MT     CLOUDY    57  48  72 N22G31    30.00R
6HR MIN TEMP:  51; 6HR MAX TEMP:  57; 6HR PCP:  0.01;

GREAT FALLS MT PTSUNNY   56  36  47 N8        30.24F
6HR MIN TEMP:  41; 6HR MAX TEMP:  58;

CHEYENNE WY    SUNNY     57  40  52 SW5       30.13F
6HR MIN TEMP:  45; 6HR MAX TEMP:  58;

SCOTTSBLUFF NE MOSUNNY   64  40  41 W12       30.09F
6HR MIN TEMP:  49; 6HR MAX TEMP:  64; 6HR PCP: TRACE;

OMAHA NE       CLOUDY    72  61  68 NW10      29.93F
6HR MIN TEMP:  66; 6HR MAX TEMP:  72;

DES MOINES IA  CLOUDY    77  60  55 SW12G20   29.90F
6HR MIN TEMP:  66; 6HR MAX TEMP:  79;

DAVENPORT IA   CLOUDY    77  58  51 S7        29.97R
6HR MIN TEMP:  67; 6HR MAX TEMP:  79; 6HR PCP: TRACE;

CHICAGO IL     PTSUNNY   82  59  45 E12       29.96F
6HR MIN TEMP:  69; 6HR MAX TEMP:  82;

EAU CLAIRE WI  CLOUDY    76  60  57 S15       29.88F
6HR MIN TEMP:  64; 6HR MAX TEMP:  77;

LA CROSSE WI   MOSUNNY   82  62  50 S16G23    29.90F
6HR MIN TEMP:  65; 6HR MAX TEMP:  82;

$$

  *****  SOME NATIONAL WEATHER *****

CITY           SKY/WX    TMP DP  RH WIND       PRES   REMARKS
LA GUARDIA NY  MOSUNNY   83  64  52 E5        29.93F
6HR MIN TEMP:  74; 6HR MAX TEMP:  83;

RALEIGH NC     PTSUNNY   83  67  58 VRB5      29.96F
6HR MIN TEMP:  71; 6HR MAX TEMP:  83;

ATLANTA GA     PTSUNNY   88  60  38 VRB3      29.96F
6HR MIN TEMP:  74; 6HR MAX TEMP:  90;

NEW ORLEANS LA PTSUNNY   88  71  57 VRB5      29.95F HX  94
6HR MIN TEMP:  74; 6HR MAX TEMP:  89;

OKLAHOMA CITY  PTSUNNY   79  66  64 S5        29.90S
6HR MIN TEMP:  66; 6HR MAX TEMP:  81; 6HR PCP: TRACE;

ALBUQUERQUE NM PTSUNNY   75  42  30 SW7       30.03F
6HR MIN TEMP:  63; 6HR MAX TEMP:  75;

SALT LAKE CITY MOSUNNY   71  30  21 NW7       30.09S
6HR MIN TEMP:  53; 6HR MAX TEMP:  71;

LOS ANGELES CA CLOUDY    63  57  81 W6        29.90S HAZE
6HR MIN TEMP:  59; 6HR MC1F1C2F2C3F3C4F4C5F5C6F6C7F7C8F8C9F9CaFaCbFbCcFcCd!



USA.gov is the U.S. government's official web portal to all federal, state and local government web resources and services.